Live-Position
3D-Globus wird geladen...
Über Starlink 3126
Group: 3 satellites
Beschreibung wird geladen...
Nächste Überflüge
Passes for default location (London). Set your location on the main map for personalized predictions.
Höhenverlauf
Loading altitude history...
No altitude history available
Zweizeiliger Elementsatz
1 49444U 21104AN 26105.24612483 -.00000998 00000-0 -44589-4 0 9999
2 49444 53.2171 45.0216 0001589 89.0246 271.0928 15.08836774244431
Epoch: 15. Apr. 2026 •
Age: 20 hours
Aktueller Status
Höhe 557.5 km
Geschwindigkeit 7.58 km/s
Subsatellitenpunkt -48.63°S,
43.33°E
Startdatum 13. Nov. 2021
Alter 4.4 years
Typ internet
Startgruppe
Falcon 9 •
Group 4-1 •
48 satellites
Starlink 3151
49408
Starlink 3075 49409
Starlink 3147 49410
Starlink 3162 49411
Starlink 3157 49413
Starlink 3146 49414
Starlink 3159 49415
Starlink 3133 49416
Starlink 3154 49417
Starlink 3111 49418
Starlink 3120 49419
Starlink 3110 49420
Starlink 3112 49421
Starlink 3161 49422
Starlink 3135 49424
Starlink 3139 49425
Starlink 3114 49426
Starlink 3131 49427
Starlink 3121 49428
Starlink 3138 49430
...and 27 more
Technische Details
Klassifizierung Payload
Masse 290.00 kg
Trockenmasse 270.00 kg
Gesamtmasse 290.00 kg
Länge 0.20 m
Durchmesser 2.80 m
Spannweite 9.00 m
Form Box + pan
Hersteller SPXS
Bus-Typ Starlink
Phasenstatus In Orbit
Besitzer/Staat SPXS/US
Most Searched
Loading...